Time,TemperatureF,DewpointF,PressureIn,WindDirection,WindDirectionDegrees,WindSpeedMPH,WindSpeedGustMPH,Humidity,HourlyPrecipIn,Conditions,Clouds,dailyrainin,SoftwareType,DateUTC
2013-02-06 00:01:00,53.3,47.6,30.04,SSE,150,0.0,0.0,81,0.00,NA,NA,-99.99,VWS Version 10.39,2013-02-06 08:01:00,
2013-02-06 00:11:00,53.2,47.5,30.04,SE,134,2.0,3.0,81,0.00,NA,NA,-99.99,VWS Version 10.39,2013-02-06 08:11:00,
2013-02-06 00:16:00,53.2,47.5,30.04,SE,137,3.0,3.0,81,0.00,NA,NA,-99.99,VWS Version 10.39,2013-02-06 08:16:00,
2013-02-06 00:21:00,53.2,47.5,30.04,SSE,154,4.0,4.0,81,0.00,NA,NA,-99.99,VWS Version 10.39,2013-02-06 08:21:00,
2013-02-06 00:26:00,53.2,47.5,30.04,SSE,155,3.0,4.0,81,0.00,NA,NA,-99.99,VWS Version 10.39,2013-02-06 08:26:00,
2013-02-06 00:31:00,53.2,47.5,30.04,SSE,147,4.0,4.0,81,0.00,NA,NA,-99.99,VWS Version 10.39,2013-02-06 08:31:00,
2013-02-06 00:36:00,53.1,47.1,30.04,SSE,157,0.0,1.0,80,0.00,NA,NA,-99.99,VWS Version 10.39,2013-02-06 08:36:00,
2013-02-06 00:41:00,53.2,47.2,30.04,SSE,157,2.0,2.0,80,0.00,NA,NA,-99.99,VWS Version 10.39,2013-02-06 08:41:00,
2013-02-06 00:46:00,53.2,47.2,30.04,SE,127,2.0,2.0,80,0.00,NA,NA,-99.99,VWS Version 10.39,2013-02-06 08:46:00,
2013-02-06 00:51:00,53.2,47.2,30.04,SSE,153,0.0,0.0,80,0.00,NA,NA,-99.99,VWS Version 10.39,2013-02-06 08:51:00,
2013-02-06 00:56:00,53.2,47.2,30.04,South,181,0.0,1.0,80,0.00,NA,NA,-99.99,VWS Version 10.39,2013-02-06 08:56:00,
2013-02-06 01:01:00,53.2,47.2,30.04,South,185,1.0,1.0,80,0.00,NA,NA,-99.99,VWS Version 10.39,2013-02-06 09:01:00,
2013-02-06 01:06:00,53.2,47.2,30.05,SE,132,0.0,0.0,80,0.00,NA,NA,-99.99,VWS Version 10.39,2013-02-06 09:06:00,
2013-02-06 01:11:00,53.2,47.2,30.05,SSE,150,1.0,2.0,80,0.00,NA,NA,-99.99,VWS Version 10.39,2013-02-06 09:11:00,
2013-02-06 01:16:00,53.2,47.2,30.05,SSE,150,0.0,0.0,80,0.00,NA,NA,-99.99,VWS Version 10.39,2013-02-06 09:16:00,
2013-02-06 01:21:00,53.2,47.2,30.05,SSE,150,1.0,2.0,80,0.00,NA,NA,-99.99,VWS Version 10.39,2013-02-06 09:21:00,
2013-02-06 01:26:00,53.2,47.2,30.04,ESE,111,4.0,4.0,80,0.00,NA,NA,-99.99,VWS Version 10.39,2013-02-06 09:26:00,
2013-02-06 01:31:00,53.2,46.9,30.04,East,83,2.0,3.0,79,0.00,NA,NA,-99.99,VWS Version 10.39,2013-02-06 09:31:00,
2013-02-06 01:36:00,53.3,47.0,30.04,ESE,107,1.0,2.0,79,0.00,NA,NA,-99.99,VWS Version 10.39,2013-02-06 09:36:00,
2013-02-06 01:41:00,53.3,47.3,30.04,SSE,161,2.0,4.0,80,0.00,NA,NA,-99.99,VWS Version 10.39,2013-02-06 09:41:00,
2013-02-06 01:46:00,53.2,47.5,30.03,SE,141,3.0,3.0,81,0.00,NA,NA,-99.99,VWS Version 10.39,2013-02-06 09:46:00,
2013-02-06 01:51:00,53.1,47.4,30.04,ESE,114,2.0,3.0,81,0.00,NA,NA,-99.99,VWS Version 10.39,2013-02-06 09:51:00,
2013-02-06 01:56:00,53.0,47.3,30.04,ESE,109,0.0,0.0,81,0.00,NA,NA,-99.99,VWS Version 10.39,2013-02-06 09:56:00,
2013-02-06 02:01:00,53.0,47.3,30.03,ESE,118,2.0,2.0,81,0.00,NA,NA,-99.99,VWS Version 10.39,2013-02-06 10:01:00,
2013-02-06 02:11:00,53.0,47.0,30.04,SE,136,1.0,3.0,80,0.00,NA,NA,-99.99,VWS Version 10.39,2013-02-06 10:11:00,
2013-02-06 02:16:00,53.0,47.0,30.04,SE,140,1.0,2.0,80,0.00,NA,NA,-99.99,VWS Version 10.39,2013-02-06 10:16:00,
2013-02-06 02:21:00,53.0,47.0,30.03,SE,144,2.0,3.0,80,0.00,NA,NA,-99.99,VWS Version 10.39,2013-02-06 10:21:00,
2013-02-06 02:26:00,53.0,46.7,30.04,South,171,0.0,0.0,79,0.00,NA,NA,-99.99,VWS Version 10.39,2013-02-06 10:26:00,
2013-02-06 02:31:00,53.0,47.0,30.04,SSE,161,0.0,1.0,80,0.00,NA,NA,-99.99,VWS Version 10.39,2013-02-06 10:31:00,
2013-02-06 02:36:00,53.0,47.0,30.03,ESE,103,1.0,2.0,80,0.00,NA,NA,-99.99,VWS Version 10.39,2013-02-06 10:36:00,
2013-02-06 02:41:00,53.0,47.0,30.03,ESE,113,3.0,3.0,80,0.00,NA,NA,-99.99,VWS Version 10.39,2013-02-06 10:41:00,
2013-02-06 02:46:00,53.0,47.0,30.03,ESE,116,1.0,2.0,80,0.00,NA,NA,-99.99,VWS Version 10.39,2013-02-06 10:46:00,
2013-02-06 02:51:00,53.0,46.7,30.03,SE,129,4.0,4.0,79,0.00,NA,NA,-99.99,VWS Version 10.39,2013-02-06 10:51:00,
2013-02-06 02:56:00,53.0,46.7,30.02,SE,131,3.0,4.0,79,0.00,NA,NA,-99.99,VWS Version 10.39,2013-02-06 10:56:00,
2013-02-06 03:01:00,53.0,47.0,30.02,ESE,115,3.0,3.0,80,0.00,NA,NA,-99.99,VWS Version 10.39,2013-02-06 11:01:00,
2013-02-06 03:06:00,53.0,47.0,30.02,ESE,111,3.0,3.0,80,0.00,NA,NA,-99.99,VWS Version 10.39,2013-02-06 11:06:00,
2013-02-06 03:11:00,53.0,47.0,30.02,ESE,111,1.0,2.0,80,0.00,NA,NA,-99.99,VWS Version 10.39,2013-02-06 11:11:00,
2013-02-06 03:16:00,52.9,47.2,30.03,SE,125,0.0,0.0,81,0.00,NA,NA,-99.99,VWS Version 10.39,2013-02-06 11:16:00,
2013-02-06 03:21:00,52.9,47.2,30.03,SE,125,0.0,2.0,81,0.00,NA,NA,-99.99,VWS Version 10.39,2013-02-06 11:21:00,
2013-02-06 03:26:00,52.9,47.2,30.03,SE,125,1.0,1.0,81,0.00,NA,NA,-99.99,VWS Version 10.39,2013-02-06 11:26:00,
2013-02-06 03:31:00,52.9,47.2,30.03,SE,125,1.0,1.0,81,0.00,NA,NA,-99.99,VWS Version 10.39,2013-02-06 11:31:00,
2013-02-06 03:36:00,52.8,47.1,30.03,ENE,76,3.0,4.0,81,0.00,NA,NA,-99.99,VWS Version 10.39,2013-02-06 11:36:00,
2013-02-06 03:41:00,52.8,47.1,30.02,East,89,1.0,2.0,81,0.00,NA,NA,-99.99,VWS Version 10.39,2013-02-06 11:41:00,
2013-02-06 03:46:00,52.8,47.1,30.02,East,83,2.0,2.0,81,0.00,NA,NA,-99.99,VWS Version 10.39,2013-02-06 11:46:00,
2013-02-06 03:51:00,52.8,47.1,30.02,ENE,68,1.0,3.0,81,0.00,NA,NA,-99.99,VWS Version 10.39,2013-02-06 11:51:00,
2013-02-06 03:56:00,52.8,47.1,30.02,ENE,74,3.0,3.0,81,0.00,NA,NA,-99.99,VWS Version 10.39,2013-02-06 11:56:00,
2013-02-06 04:01:00,52.7,47.4,30.02,ENE,78,2.0,5.0,82,0.00,NA,NA,-99.99,VWS Version 10.39,2013-02-06 12:01:00,
2013-02-06 04:06:00,52.7,47.4,30.01,East,88,2.0,5.0,82,0.00,NA,NA,-99.99,VWS Version 10.39,2013-02-06 12:06:00,
2013-02-06 04:11:00,52.7,47.4,30.01,East,79,2.0,5.0,82,0.00,NA,NA,-99.99,VWS Version 10.39,2013-02-06 12:11:00,
2013-02-06 04:16:00,52.7,47.4,30.01,East,86,2.0,2.0,82,0.00,NA,NA,-99.99,VWS Version 10.39,2013-02-06 12:16:00,
2013-02-06 04:21:00,52.6,47.3,30.01,East,82,3.0,3.0,82,0.00,NA,NA,-99.99,VWS Version 10.39,2013-02-06 12:21:00,
2013-02-06 04:26:00,52.7,47.0,30.01,East,81,3.0,3.0,81,0.00,NA,NA,-99.99,VWS Version 10.39,2013-02-06 12:26:00,
2013-02-06 04:31:00,52.7,47.0,30.01,East,89,3.0,3.0,81,0.00,NA,NA,-99.99,VWS Version 10.39,2013-02-06 12:31:00,
2013-02-06 04:36:00,52.7,47.0,30.02,ENE,72,3.0,3.0,81,0.00,NA,NA,-99.99,VWS Version 10.39,2013-02-06 12:36:00,
2013-02-06 04:41:00,52.7,47.0,30.02,East,84,5.0,5.0,81,0.00,NA,NA,-99.99,VWS Version 10.39,2013-02-06 12:41:00,
2013-02-06 04:46:00,52.7,47.0,30.01,ENE,67,2.0,2.0,81,0.00,NA,NA,-99.99,VWS Version 10.39,2013-02-06 12:46:00,
2013-02-06 04:51:00,52.8,47.1,30.02,SE,136,2.0,5.0,81,0.00,NA,NA,-99.99,VWS Version 10.39,2013-02-06 12:51:00,
2013-02-06 04:56:00,52.8,47.1,30.02,East,84,3.0,7.0,81,0.00,NA,NA,-99.99,VWS Version 10.39,2013-02-06 12:56:00,
2013-02-06 05:01:00,52.7,47.0,30.02,East,92,7.0,7.0,81,0.00,NA,NA,-99.99,VWS Version 10.39,2013-02-06 13:01:00,
2013-02-06 05:11:00,52.7,47.0,30.02,East,92,5.0,5.0,81,0.00,NA,NA,-99.99,VWS Version 10.39,2013-02-06 13:11:00,
2013-02-06 05:16:00,52.7,47.0,30.01,ENE,78,2.0,3.0,81,0.00,NA,NA,-99.99,VWS Version 10.39,2013-02-06 13:16:00,
2013-02-06 05:21:00,52.7,47.0,30.01,ESE,104,2.0,2.0,81,0.00,NA,NA,-99.99,VWS Version 10.39,2013-02-06 13:21:00,
2013-02-06 05:26:00,52.7,47.0,30.02,East,101,2.0,2.0,81,0.00,NA,NA,-99.99,VWS Version 10.39,2013-02-06 13:26:00,
2013-02-06 05:31:00,52.7,47.0,30.02,ESE,109,3.0,3.0,81,0.00,NA,NA,-99.99,VWS Version 10.39,2013-02-06 13:31:00,
2013-02-06 05:36:00,52.7,46.7,30.02,ESE,117,2.0,3.0,80,0.00,NA,NA,-99.99,VWS Version 10.39,2013-02-06 13:36:00,
2013-02-06 05:41:00,52.8,46.8,30.03,ESE,112,2.0,3.0,80,0.00,NA,NA,-99.99,VWS Version 10.39,2013-02-06 13:41:00,
2013-02-06 05:46:00,52.8,46.8,30.03,East,101,3.0,3.0,80,0.00,NA,NA,-99.99,VWS Version 10.39,2013-02-06 13:46:00,
2013-02-06 05:51:00,52.9,46.6,30.03,East,92,2.0,2.0,79,0.00,NA,NA,-99.99,VWS Version 10.39,2013-02-06 13:51:00,
2013-02-06 05:56:00,52.9,46.9,30.03,East,92,2.0,3.0,80,0.00,NA,NA,-99.99,VWS Version 10.39,2013-02-06 13:56:00,
2013-02-06 06:01:00,52.9,46.6,30.03,East,96,0.0,1.0,79,0.00,NA,NA,-99.99,VWS Version 10.39,2013-02-06 14:01:00,
2013-02-06 06:06:00,53.0,46.7,30.04,East,94,3.0,3.0,79,0.00,NA,NA,-99.99,VWS Version 10.39,2013-02-06 14:06:00,
2013-02-06 06:11:00,53.0,46.7,30.04,ENE,71,2.0,2.0,79,0.00,NA,NA,-99.99,VWS Version 10.39,2013-02-06 14:11:00,
2013-02-06 06:16:00,53.0,46.7,30.04,East,83,2.0,2.0,79,0.00,NA,NA,-99.99,VWS Version 10.39,2013-02-06 14:16:00,
2013-02-06 06:21:00,53.0,46.7,30.04,East,86,1.0,2.0,79,0.00,NA,NA,-99.99,VWS Version 10.39,2013-02-06 14:21:00,
2013-02-06 06:26:00,53.0,46.7,30.04,ESE,105,1.0,2.0,79,0.00,NA,NA,-99.99,VWS Version 10.39,2013-02-06 14:26:00,
2013-02-06 06:31:00,53.0,46.7,30.04,East,92,0.0,1.0,79,0.00,NA,NA,-99.99,VWS Version 10.39,2013-02-06 14:31:00,
2013-02-06 06:36:00,53.0,46.7,30.04,ESE,113,1.0,2.0,79,0.00,NA,NA,-99.99,VWS Version 10.39,2013-02-06 14:36:00,
2013-02-06 06:41:00,53.0,46.7,30.04,East,80,2.0,3.0,79,0.00,NA,NA,-99.99,VWS Version 10.39,2013-02-06 14:41:00,
2013-02-06 06:46:00,52.9,46.6,30.04,ESE,122,2.0,3.0,79,0.00,NA,NA,-99.99,VWS Version 10.39,2013-02-06 14:46:00,
2013-02-06 06:51:00,52.9,46.6,30.04,East,86,2.0,3.0,79,0.00,NA,NA,-99.99,VWS Version 10.39,2013-02-06 14:51:00,
2013-02-06 06:56:00,52.9,46.6,30.04,East,88,2.0,2.0,79,0.00,NA,NA,-99.99,VWS Version 10.39,2013-02-06 14:56:00,
2013-02-06 07:01:00,52.9,46.6,30.04,ESE,115,2.0,2.0,79,0.00,NA,NA,-99.99,VWS Version 10.39,2013-02-06 15:01:00,
2013-02-06 07:06:00,52.9,46.6,30.05,East,96,3.0,5.0,79,0.00,NA,NA,-99.99,VWS Version 10.39,2013-02-06 15:06:00,
2013-02-06 07:11:00,53.0,46.7,30.04,ESE,119,4.0,5.0,79,0.00,NA,NA,-99.99,VWS Version 10.39,2013-02-06 15:11:00,
2013-02-06 07:16:00,53.0,46.7,30.05,ESE,117,4.0,4.0,79,0.00,NA,NA,-99.99,VWS Version 10.39,2013-02-06 15:16:00,
2013-02-06 07:21:00,53.0,46.3,30.05,ESE,103,2.0,3.0,78,0.00,NA,NA,-99.99,VWS Version 10.39,2013-02-06 15:21:00,
2013-02-06 07:26:00,53.0,46.3,30.05,SE,126,2.0,2.0,78,0.00,NA,NA,-99.99,VWS Version 10.39,2013-02-06 15:26:00,
2013-02-06 07:31:00,53.1,46.4,30.05,ESE,106,1.0,1.0,78,0.00,NA,NA,-99.99,VWS Version 10.39,2013-02-06 15:31:00,
2013-02-06 07:36:00,53.2,46.2,30.05,ESE,115,2.0,2.0,77,0.00,NA,NA,-99.99,VWS Version 10.39,2013-02-06 15:36:00,
2013-02-06 07:41:00,53.2,46.2,30.05,ESE,115,1.0,1.0,77,0.00,NA,NA,-99.99,VWS Version 10.39,2013-02-06 15:41:00,
2013-02-06 07:46:00,53.3,46.3,30.05,ESE,115,2.0,2.0,77,0.00,NA,NA,-99.99,VWS Version 10.39,2013-02-06 15:46:00,
2013-02-06 07:51:00,53.4,46.0,30.05,ESE,115,0.0,1.0,76,0.00,NA,NA,-99.99,VWS Version 10.39,2013-02-06 15:51:00,
2013-02-06 07:56:00,53.5,46.1,30.05,ESE,115,0.0,0.0,76,0.00,NA,NA,-99.99,VWS Version 10.39,2013-02-06 15:56:00,
2013-02-06 08:01:00,53.7,46.3,30.05,ESE,115,0.0,0.0,76,0.00,NA,NA,-99.99,VWS Version 10.39,2013-02-06 16:01:00,
2013-02-06 08:06:00,53.9,46.5,30.06,ESE,115,0.0,0.0,76,0.00,NA,NA,-99.99,VWS Version 10.39,2013-02-06 16:06:00,
2013-02-06 08:11:00,54.2,46.8,30.06,ESE,117,1.0,1.0,76,0.00,NA,NA,-99.99,VWS Version 10.39,2013-02-06 16:11:00,
2013-02-06 08:16:00,54.6,47.2,30.06,SSE,156,1.0,2.0,76,0.00,NA,NA,-99.99,VWS Version 10.39,2013-02-06 16:16:00,
2013-02-06 08:21:00,54.9,47.1,30.07,SE,145,3.0,3.0,75,0.00,NA,NA,-99.99,VWS Version 10.39,2013-02-06 16:21:00,
2013-02-06 08:26:00,54.9,47.1,30.07,SE,145,0.0,0.0,75,0.00,NA,NA,-99.99,VWS Version 10.39,2013-02-06 16:26:00,
2013-02-06 08:31:00,55.1,47.3,30.07,SE,142,1.0,1.0,75,0.00,NA,NA,-99.99,VWS Version 10.39,2013-02-06 16:31:00,
2013-02-06 08:36:00,55.3,47.5,30.07,SE,142,0.0,0.0,75,0.00,NA,NA,-99.99,VWS Version 10.39,2013-02-06 16:36:00,
2013-02-06 08:41:00,55.4,47.3,30.07,South,174,0.0,1.0,74,0.00,NA,NA,-99.99,VWS Version 10.39,2013-02-06 16:41:00,
2013-02-06 08:46:00,55.4,47.6,30.07,South,169,0.0,1.0,75,0.00,NA,NA,-99.99,VWS Version 10.39,2013-02-06 16:46:00,
2013-02-06 08:51:00,55.6,47.5,30.07,South,169,0.0,0.0,74,0.00,NA,NA,-99.99,VWS Version 10.39,2013-02-06 16:51:00,
2013-02-06 08:56:00,55.7,47.5,30.08,SW,234,0.0,0.0,74,0.00,NA,NA,-99.99,VWS Version 10.39,2013-02-06 16:56:00,
2013-02-06 09:01:00,55.8,47.7,30.08,SW,232,1.0,2.0,74,0.00,NA,NA,-99.99,VWS Version 10.39,2013-02-06 17:01:00,
2013-02-06 09:06:00,56.0,48.2,30.08,SW,223,0.0,1.0,75,0.00,NA,NA,-99.99,VWS Version 10.39,2013-02-06 17:06:00,
2013-02-06 09:11:00,56.1,47.9,30.08,SSW,204,2.0,2.0,74,0.00,NA,NA,-99.99,VWS Version 10.39,2013-02-06 17:11:00,
2013-02-06 09:16:00,56.2,48.0,30.08,SSW,211,2.0,3.0,74,0.00,NA,NA,-99.99,VWS Version 10.39,2013-02-06 17:16:00,
2013-02-06 09:21:00,56.2,48.0,30.08,SSW,208,0.0,1.0,74,0.00,NA,NA,-99.99,VWS Version 10.39,2013-02-06 17:21:00,
2013-02-06 09:26:00,56.4,48.2,30.08,SSW,210,0.0,2.0,74,0.00,NA,NA,-99.99,VWS Version 10.39,2013-02-06 17:26:00,
2013-02-06 09:31:00,56.5,48.3,30.08,SW,229,2.0,3.0,74,0.00,NA,NA,-99.99,VWS Version 10.39,2013-02-06 17:31:00,
2013-02-06 09:36:00,56.5,48.0,30.08,SSW,212,2.0,3.0,73,0.00,NA,NA,-99.99,VWS Version 10.39,2013-02-06 17:36:00,
2013-02-06 09:41:00,56.7,48.2,30.08,WSW,238,1.0,1.0,73,0.00,NA,NA,-99.99,VWS Version 10.39,2013-02-06 17:41:00,
2013-02-06 09:46:00,57.1,47.8,30.08,South,171,0.0,1.0,71,0.00,NA,NA,-99.99,VWS Version 10.39,2013-02-06 17:46:00,
2013-02-06 09:51:00,57.2,47.9,30.09,South,180,3.0,5.0,71,0.00,NA,NA,-99.99,VWS Version 10.39,2013-02-06 17:51:00,
2013-02-06 09:56:00,56.9,47.6,30.08,SSW,198,3.0,4.0,71,0.00,NA,NA,-99.99,VWS Version 10.39,2013-02-06 17:56:00,
2013-02-06 10:01:00,56.7,47.8,30.09,SSW,200,4.0,4.0,72,0.00,NA,NA,-99.99,VWS Version 10.39,2013-02-06 18:01:00,
2013-02-06 10:06:00,56.6,47.7,30.08,SSW,211,1.0,2.0,72,0.00,NA,NA,-99.99,VWS Version 10.39,2013-02-06 18:06:00,
2013-02-06 10:11:00,56.7,48.2,30.09,SW,217,3.0,3.0,73,0.00,NA,NA,-99.99,VWS Version 10.39,2013-02-06 18:11:00,
2013-02-06 10:16:00,56.9,48.0,30.09,SW,227,1.0,2.0,72,0.00,NA,NA,-99.99,VWS Version 10.39,2013-02-06 18:16:00,
2013-02-06 10:21:00,56.9,48.0,30.09,SW,221,1.0,1.0,72,0.00,NA,NA,-99.99,VWS Version 10.39,2013-02-06 18:21:00,
2013-02-06 10:26:00,56.9,47.6,30.09,SSW,209,3.0,3.0,71,0.00,NA,NA,-99.99,VWS Version 10.39,2013-02-06 18:26:00,
2013-02-06 10:31:00,56.6,47.7,30.09,SSW,208,1.0,3.0,72,0.00,NA,NA,-99.99,VWS Version 10.39,2013-02-06 18:31:00,
2013-02-06 10:36:00,56.8,48.2,30.09,WSW,252,2.0,2.0,73,0.00,NA,NA,-99.99,VWS Version 10.39,2013-02-06 18:36:00,
2013-02-06 10:41:00,57.4,48.5,30.08,SW,235,1.0,3.0,72,0.00,NA,NA,-99.99,VWS Version 10.39,2013-02-06 18:41:00,
2013-02-06 10:46:00,58.1,48.8,30.09,SW,229,4.0,4.0,71,0.00,NA,NA,-99.99,VWS Version 10.39,2013-02-06 18:46:00,
2013-02-06 10:51:00,58.5,48.4,30.09,SW,214,4.0,4.0,69,0.00,NA,NA,-99.99,VWS Version 10.39,2013-02-06 18:51:00,
2013-02-06 10:56:00,59.0,48.9,30.08,South,190,3.0,4.0,69,0.00,NA,NA,-99.99,VWS Version 10.39,2013-02-06 18:56:00,
2013-02-06 11:01:00,59.1,48.6,30.08,SW,229,2.0,5.0,68,0.00,NA,NA,-99.99,VWS Version 10.39,2013-02-06 19:01:00,
2013-02-06 11:06:00,59.3,48.8,30.08,West,262,0.0,1.0,68,0.00,NA,NA,-99.99,VWS Version 10.39,2013-02-06 19:06:00,
2013-02-06 11:11:00,59.5,48.9,30.08,SW,215,2.0,4.0,68,0.00,NA,NA,-99.99,VWS Version 10.39,2013-02-06 19:11:00,
2013-02-06 11:21:00,60.3,49.3,30.08,SW,215,1.0,4.0,67,0.00,NA,NA,-99.99,VWS Version 10.39,2013-02-06 19:21:00,
2013-02-06 11:26:00,60.4,49.0,30.08,SW,225,2.0,3.0,66,0.00,NA,NA,-99.99,VWS Version 10.39,2013-02-06 19:26:00,
2013-02-06 11:31:00,60.5,49.5,30.08,WSW,256,4.0,4.0,67,0.00,NA,NA,-99.99,VWS Version 10.39,2013-02-06 19:31:00,
2013-02-06 11:36:00,60.5,49.5,30.08,SW,232,2.0,3.0,67,0.00,NA,NA,-99.99,VWS Version 10.39,2013-02-06 19:36:00,
2013-02-06 11:41:00,60.3,49.7,30.08,SW,230,2.0,5.0,68,0.00,NA,NA,-99.99,VWS Version 10.39,2013-02-06 19:41:00,
2013-02-06 11:46:00,60.5,49.9,30.08,SSW,211,3.0,4.0,68,0.00,NA,NA,-99.99,VWS Version 10.39,2013-02-06 19:46:00,
2013-02-06 11:51:00,60.8,50.2,30.07,WSW,240,2.0,4.0,68,0.00,NA,NA,-99.99,VWS Version 10.39,2013-02-06 19:51:00,
2013-02-06 11:56:00,61.0,50.0,30.07,WSW,247,3.0,3.0,67,0.00,NA,NA,-99.99,VWS Version 10.39,2013-02-06 19:56:00,
2013-02-06 12:01:00,61.2,49.8,30.07,WNW,303,3.0,3.0,66,0.00,NA,NA,-99.99,VWS Version 10.39,2013-02-06 20:01:00,
2013-02-06 12:06:00,60.6,49.6,30.07,WSW,252,3.0,4.0,67,0.00,NA,NA,-99.99,VWS Version 10.39,2013-02-06 20:06:00,
2013-02-06 12:11:00,60.1,49.5,30.07,SE,126,1.0,2.0,68,0.00,NA,NA,-99.99,VWS Version 10.39,2013-02-06 20:11:00,
2013-02-06 12:16:00,59.7,49.5,30.07,WSW,254,3.0,7.0,69,0.00,NA,NA,-99.99,VWS Version 10.39,2013-02-06 20:16:00,
2013-02-06 12:21:00,59.8,50.0,30.07,WSW,254,3.0,3.0,70,0.00,NA,NA,-99.99,VWS Version 10.39,2013-02-06 20:21:00,
2013-02-06 12:26:00,59.5,49.3,30.07,NNW,340,4.0,4.0,69,0.00,NA,NA,-99.99,VWS Version 10.39,2013-02-06 20:26:00,
2013-02-06 12:31:00,59.4,49.6,30.07,SSW,213,3.0,5.0,70,0.00,NA,NA,-99.99,VWS Version 10.39,2013-02-06 20:31:00,
2013-02-06 12:36:00,59.2,49.4,30.06,WSW,242,5.0,8.0,70,0.00,NA,NA,-99.99,VWS Version 10.39,2013-02-06 20:36:00,
2013-02-06 12:41:00,58.9,49.5,30.06,West,271,4.0,6.0,71,0.00,NA,NA,-99.99,VWS Version 10.39,2013-02-06 20:41:00,
2013-02-06 12:46:00,59.3,49.5,30.06,WNW,294,6.0,6.0,70,0.00,NA,NA,-99.99,VWS Version 10.39,2013-02-06 20:46:00,
2013-02-06 12:51:00,59.6,49.4,30.05,West,279,2.0,3.0,69,0.00,NA,NA,-99.99,VWS Version 10.39,2013-02-06 20:51:00,
2013-02-06 12:56:00,59.8,49.6,30.05,SW,236,4.0,4.0,69,0.00,NA,NA,-99.99,VWS Version 10.39,2013-02-06 20:56:00,
2013-02-06 13:01:00,60.1,49.5,30.04,WSW,241,4.0,4.0,68,0.00,NA,NA,-99.99,VWS Version 10.39,2013-02-06 21:01:00,
2013-02-06 13:06:00,60.0,49.4,30.04,ENE,58,1.0,1.0,68,0.00,NA,NA,-99.99,VWS Version 10.39,2013-02-06 21:06:00,
2013-02-06 13:11:00,60.2,49.6,30.04,SW,225,3.0,3.0,68,0.00,NA,NA,-99.99,VWS Version 10.39,2013-02-06 21:11:00,
2013-02-06 13:16:00,60.3,49.3,30.04,NE,38,1.0,6.0,67,0.00,NA,NA,-99.99,VWS Version 10.39,2013-02-06 21:16:00,
2013-02-06 13:21:00,60.3,48.9,30.04,WNW,293,3.0,3.0,66,0.00,NA,NA,-99.99,VWS Version 10.39,2013-02-06 21:21:00,
2013-02-06 13:26:00,60.4,49.4,30.04,West,270,7.0,7.0,67,0.00,NA,NA,-99.99,VWS Version 10.39,2013-02-06 21:26:00,
2013-02-06 13:31:00,60.4,49.0,30.04,NNW,333,4.0,5.0,66,0.00,NA,NA,-99.99,VWS Version 10.39,2013-02-06 21:31:00,
2013-02-06 13:36:00,60.4,49.4,30.04,WNW,293,5.0,5.0,67,0.00,NA,NA,-99.99,VWS Version 10.39,2013-02-06 21:36:00,
2013-02-06 13:41:00,59.7,48.3,30.04,NNW,337,2.0,7.0,66,0.00,NA,NA,-99.99,VWS Version 10.39,2013-02-06 21:41:00,
2013-02-06 13:46:00,59.4,49.2,30.04,SW,236,6.0,6.0,69,0.00,NA,NA,-99.99,VWS Version 10.39,2013-02-06 21:46:00,
2013-02-06 13:51:00,59.4,48.8,30.04,NW,313,4.0,4.0,68,0.00,NA,NA,-99.99,VWS Version 10.39,2013-02-06 21:51:00,
2013-02-06 13:56:00,59.1,49.0,30.04,North,5,3.0,4.0,69,0.00,NA,NA,-99.99,VWS Version 10.39,2013-02-06 21:56:00,
2013-02-06 14:01:00,58.8,48.7,30.04,NNW,335,4.0,6.0,69,0.00,NA,NA,-99.99,VWS Version 10.39,2013-02-06 22:01:00,
2013-02-06 14:06:00,58.5,48.4,30.04,WNW,298,3.0,4.0,69,0.00,NA,NA,-99.99,VWS Version 10.39,2013-02-06 22:06:00,
2013-02-06 14:11:00,58.5,48.8,30.04,NW,324,4.0,4.0,70,0.00,NA,NA,-99.99,VWS Version 10.39,2013-02-06 22:11:00,
2013-02-06 14:16:00,58.7,48.6,30.04,West,269,6.0,6.0,69,0.00,NA,NA,-99.99,VWS Version 10.39,2013-02-06 22:16:00,
2013-02-06 14:21:00,58.8,48.7,30.04,NNW,344,7.0,7.0,69,0.00,NA,NA,-99.99,VWS Version 10.39,2013-02-06 22:21:00,
2013-02-06 14:26:00,59.0,49.2,30.04,WNW,302,5.0,6.0,70,0.00,NA,NA,-99.99,VWS Version 10.39,2013-02-06 22:26:00,
2013-02-06 14:31:00,58.9,48.8,30.04,WNW,284,4.0,5.0,69,0.00,NA,NA,-99.99,VWS Version 10.39,2013-02-06 22:31:00,
2013-02-06 14:36:00,58.8,49.0,30.04,NW,307,7.0,7.0,70,0.00,NA,NA,-99.99,VWS Version 10.39,2013-02-06 22:36:00,
2013-02-06 14:41:00,58.2,48.8,30.04,West,269,6.0,7.0,71,0.00,NA,NA,-99.99,VWS Version 10.39,2013-02-06 22:41:00,
2013-02-06 14:46:00,58.5,49.5,30.04,WNW,290,6.0,6.0,72,0.00,NA,NA,-99.99,VWS Version 10.39,2013-02-06 22:46:00,
2013-02-06 14:51:00,58.7,49.7,30.05,NNW,329,6.0,6.0,72,0.00,NA,NA,-99.99,VWS Version 10.39,2013-02-06 22:51:00,
2013-02-06 14:56:00,58.9,49.5,30.04,WNW,298,6.0,8.0,71,0.00,NA,NA,-99.99,VWS Version 10.39,2013-02-06 22:56:00,
2013-02-06 15:01:00,58.7,49.3,30.04,NNW,329,3.0,5.0,71,0.00,NA,NA,-99.99,VWS Version 10.39,2013-02-06 23:01:00,
2013-02-06 15:06:00,59.1,49.7,30.04,WNW,296,5.0,5.0,71,0.00,NA,NA,-99.99,VWS Version 10.39,2013-02-06 23:06:00,
2013-02-06 15:11:00,58.4,49.0,30.05,NNW,333,4.0,9.0,71,0.00,NA,NA,-99.99,VWS Version 10.39,2013-02-06 23:11:00,
2013-02-06 15:16:00,58.4,49.8,30.05,WNW,286,6.0,6.0,73,0.00,NA,NA,-99.99,VWS Version 10.39,2013-02-06 23:16:00,
2013-02-06 15:21:00,58.6,49.6,30.05,NW,316,3.0,4.0,72,0.00,NA,NA,-99.99,VWS Version 10.39,2013-02-06 23:21:00,
2013-02-06 15:26:00,58.6,49.6,30.05,NW,319,2.0,2.0,72,0.00,NA,NA,-99.99,VWS Version 10.39,2013-02-06 23:26:00,
2013-02-06 15:31:00,58.4,49.4,30.04,West,274,4.0,6.0,72,0.00,NA,NA,-99.99,VWS Version 10.39,2013-02-06 23:31:00,
2013-02-06 15:36:00,58.5,49.1,30.04,WNW,297,3.0,3.0,71,0.00,NA,NA,-99.99,VWS Version 10.39,2013-02-06 23:36:00,
2013-02-06 15:41:00,58.4,49.4,30.04,NW,305,3.0,4.0,72,0.00,NA,NA,-99.99,VWS Version 10.39,2013-02-06 23:41:00,
2013-02-06 15:46:00,58.1,49.5,30.04,West,281,2.0,4.0,73,0.00,NA,NA,-99.99,VWS Version 10.39,2013-02-06 23:46:00,
2013-02-06 15:51:00,58.3,49.3,30.04,NW,320,3.0,7.0,72,0.00,NA,NA,-99.99,VWS Version 10.39,2013-02-06 23:51:00,
2013-02-06 15:56:00,58.0,49.4,30.04,NE,37,2.0,4.0,73,0.00,NA,NA,-99.99,VWS Version 10.39,2013-02-06 23:56:00,
2013-02-06 16:01:00,58.2,49.2,30.04,NW,315,3.0,3.0,72,0.00,NA,NA,-99.99,VWS Version 10.39,2013-02-07 00:01:00,
2013-02-06 16:06:00,58.0,49.0,30.04,WSW,256,2.0,3.0,72,0.00,NA,NA,-99.99,VWS Version 10.39,2013-02-07 00:06:00,
2013-02-06 16:11:00,57.8,49.2,30.04,NNW,347,3.0,4.0,73,0.00,NA,NA,-99.99,VWS Version 10.39,2013-02-07 00:11:00,
2013-02-06 16:16:00,57.9,48.6,30.04,NW,316,1.0,3.0,71,0.00,NA,NA,-99.99,VWS Version 10.39,2013-02-07 00:16:00,
2013-02-06 16:21:00,58.0,49.0,30.04,South,173,1.0,1.0,72,0.00,NA,NA,-99.99,VWS Version 10.39,2013-02-07 00:21:00,
2013-02-06 16:26:00,58.1,49.1,30.04,WNW,291,3.0,3.0,72,0.00,NA,NA,-99.99,VWS Version 10.39,2013-02-07 00:26:00,
2013-02-06 16:31:00,57.9,48.9,30.04,WSW,240,1.0,5.0,72,0.00,NA,NA,-99.99,VWS Version 10.39,2013-02-07 00:31:00,
2013-02-06 16:36:00,57.8,49.2,30.05,North,351,2.0,2.0,73,0.00,NA,NA,-99.99,VWS Version 10.39,2013-02-07 00:36:00,
2013-02-06 16:41:00,57.6,49.0,30.05,West,261,2.0,3.0,73,0.00,NA,NA,-99.99,VWS Version 10.39,2013-02-07 00:41:00,
2013-02-06 16:46:00,57.2,48.3,30.05,WNW,282,2.0,3.0,72,0.00,NA,NA,-99.99,VWS Version 10.39,2013-02-07 00:46:00,
2013-02-06 16:51:00,57.0,48.4,30.05,NW,323,4.0,5.0,73,0.00,NA,NA,-99.99,VWS Version 10.39,2013-02-07 00:51:00,
2013-02-06 16:56:00,56.9,48.3,30.05,NNW,347,0.0,0.0,73,0.00,NA,NA,-99.99,VWS Version 10.39,2013-02-07 00:56:00,
2013-02-06 17:01:00,56.7,48.5,30.05,WNW,298,1.0,2.0,74,0.00,NA,NA,-99.99,VWS Version 10.39,2013-02-07 01:01:00,
2013-02-06 17:06:00,56.5,48.3,30.05,WNW,286,2.0,4.0,74,0.00,NA,NA,-99.99,VWS Version 10.39,2013-02-07 01:06:00,
2013-02-06 17:11:00,56.2,48.4,30.05,NW,310,4.0,4.0,75,0.00,NA,NA,-99.99,VWS Version 10.39,2013-02-07 01:11:00,
2013-02-06 17:16:00,55.9,48.1,30.05,WNW,296,2.0,2.0,75,0.00,NA,NA,-99.99,VWS Version 10.39,2013-02-07 01:16:00,
2013-02-06 17:21:00,55.6,48.2,30.05,WNW,303,3.0,3.0,76,0.00,NA,NA,-99.99,VWS Version 10.39,2013-02-07 01:21:00,
2013-02-06 17:26:00,55.4,48.0,30.06,WNW,288,2.0,3.0,76,0.00,NA,NA,-99.99,VWS Version 10.39,2013-02-07 01:26:00,
2013-02-06 17:31:00,55.3,48.2,30.05,NW,305,2.0,2.0,77,0.00,NA,NA,-99.99,VWS Version 10.39,2013-02-07 01:31:00,
2013-02-06 17:36:00,55.1,48.0,30.06,NW,310,1.0,1.0,77,0.00,NA,NA,-99.99,VWS Version 10.39,2013-02-07 01:36:00,
2013-02-06 17:41:00,55.0,47.9,30.06,NW,307,0.0,1.0,77,0.00,NA,NA,-99.99,VWS Version 10.39,2013-02-07 01:41:00,
2013-02-06 17:46:00,55.0,48.3,30.06,WNW,283,1.0,2.0,78,0.00,NA,NA,-99.99,VWS Version 10.39,2013-02-07 01:46:00,
2013-02-06 17:51:00,54.9,48.2,30.06,WNW,302,1.0,2.0,78,0.00,NA,NA,-99.99,VWS Version 10.39,2013-02-07 01:51:00,
2013-02-06 17:56:00,54.8,47.7,30.06,WNW,302,1.0,1.0,77,0.00,NA,NA,-99.99,VWS Version 10.39,2013-02-07 01:56:00,
2013-02-06 18:01:00,54.7,48.0,30.06,WNW,293,2.0,2.0,78,0.00,NA,NA,-99.99,VWS Version 10.39,2013-02-07 02:01:00,
2013-02-06 18:06:00,54.6,47.9,30.06,NW,319,2.0,3.0,78,0.00,NA,NA,-99.99,VWS Version 10.39,2013-02-07 02:06:00,
2013-02-06 18:11:00,54.6,47.5,30.06,NW,315,2.0,2.0,77,0.00,NA,NA,-99.99,VWS Version 10.39,2013-02-07 02:11:00,
2013-02-06 18:16:00,54.4,47.7,30.06,NW,315,2.0,2.0,78,0.00,NA,NA,-99.99,VWS Version 10.39,2013-02-07 02:16:00,
2013-02-06 18:21:00,54.4,47.7,30.06,NW,317,2.0,2.0,78,0.00,NA,NA,-99.99,VWS Version 10.39,2013-02-07 02:21:00,
2013-02-06 18:26:00,54.3,47.6,30.07,NW,317,1.0,1.0,78,0.00,NA,NA,-99.99,VWS Version 10.39,2013-02-07 02:26:00,
2013-02-06 18:31:00,54.3,47.6,30.07,NW,314,4.0,4.0,78,0.00,NA,NA,-99.99,VWS Version 10.39,2013-02-07 02:31:00,
2013-02-06 18:36:00,54.3,47.6,30.07,NW,311,0.0,1.0,78,0.00,NA,NA,-99.99,VWS Version 10.39,2013-02-07 02:36:00,
2013-02-06 18:41:00,54.1,47.4,30.07,North,355,2.0,2.0,78,0.00,NA,NA,-99.99,VWS Version 10.39,2013-02-07 02:41:00,
2013-02-06 18:46:00,54.0,47.3,30.07,North,355,0.0,1.0,78,0.00,NA,NA,-99.99,VWS Version 10.39,2013-02-07 02:46:00,
2013-02-06 18:51:00,53.8,47.1,30.07,North,360,0.0,0.0,78,0.00,NA,NA,-99.99,VWS Version 10.39,2013-02-07 02:51:00,
2013-02-06 18:56:00,53.7,47.3,30.07,NNE,14,1.0,2.0,79,0.00,NA,NA,-99.99,VWS Version 10.39,2013-02-07 02:56:00,
2013-02-06 19:01:00,53.5,47.2,30.08,NNE,14,0.0,0.0,79,0.00,NA,NA,-99.99,VWS Version 10.39,2013-02-07 03:01:00,
2013-02-06 19:06:00,53.3,47.0,30.08,NNE,14,0.0,0.0,79,0.00,NA,NA,-99.99,VWS Version 10.39,2013-02-07 03:06:00,
2013-02-06 19:11:00,53.2,46.9,30.08,NNE,14,0.0,1.0,79,0.00,NA,NA,-99.99,VWS Version 10.39,2013-02-07 03:11:00,
2013-02-06 19:16:00,53.2,47.2,30.08,NNE,14,0.0,0.0,80,0.00,NA,NA,-99.99,VWS Version 10.39,2013-02-07 03:16:00,
2013-02-06 19:21:00,53.1,47.1,30.08,NNE,14,0.0,0.0,80,0.00,NA,NA,-99.99,VWS Version 10.39,2013-02-07 03:21:00,
2013-02-06 19:26:00,52.9,46.6,30.08,NNE,14,0.0,0.0,79,0.00,NA,NA,-99.99,VWS Version 10.39,2013-02-07 03:26:00,
2013-02-06 19:31:00,52.6,46.3,30.08,NNE,14,0.0,0.0,79,0.00,NA,NA,-99.99,VWS Version 10.39,2013-02-07 03:31:00,
2013-02-06 19:36:00,52.5,46.5,30.08,NNE,14,0.0,0.0,80,0.00,NA,NA,-99.99,VWS Version 10.39,2013-02-07 03:36:00,
2013-02-06 19:41:00,52.4,46.4,30.08,NNE,14,0.0,0.0,80,0.00,NA,NA,-99.99,VWS Version 10.39,2013-02-07 03:41:00,
2013-02-06 19:46:00,52.4,46.4,30.08,NNE,14,0.0,0.0,80,0.00,NA,NA,-99.99,VWS Version 10.39,2013-02-07 03:46:00,
2013-02-06 19:51:00,52.4,46.4,30.09,NNE,14,0.0,1.0,80,0.00,NA,NA,-99.99,VWS Version 10.39,2013-02-07 03:51:00,
2013-02-06 19:56:00,52.4,46.1,30.09,NNE,19,2.0,2.0,79,0.00,NA,NA,-99.99,VWS Version 10.39,2013-02-07 03:56:00,
2013-02-06 20:01:00,52.2,45.9,30.09,ENE,58,2.0,2.0,79,0.00,NA,NA,-99.99,VWS Version 10.39,2013-02-07 04:01:00,
2013-02-06 20:06:00,51.9,45.6,30.09,NE,46,0.0,3.0,79,0.00,NA,NA,-99.99,VWS Version 10.39,2013-02-07 04:06:00,
2013-02-06 20:11:00,51.7,45.7,30.09,ENE,63,3.0,4.0,80,0.00,NA,NA,-99.99,VWS Version 10.39,2013-02-07 04:11:00,
2013-02-06 20:16:00,51.5,45.5,30.09,ENE,59,1.0,1.0,80,0.00,NA,NA,-99.99,VWS Version 10.39,2013-02-07 04:16:00,
2013-02-06 20:21:00,51.5,45.5,30.09,ENE,58,1.0,3.0,80,0.00,NA,NA,-99.99,VWS Version 10.39,2013-02-07 04:21:00,
2013-02-06 20:26:00,51.7,45.7,30.10,NE,56,2.0,2.0,80,0.00,NA,NA,-99.99,VWS Version 10.39,2013-02-07 04:26:00,
2013-02-06 20:31:00,51.8,45.8,30.10,NE,56,0.0,1.0,80,0.00,NA,NA,-99.99,VWS Version 10.39,2013-02-07 04:31:00,
2013-02-06 20:36:00,51.9,46.3,30.10,NE,40,2.0,2.0,81,0.00,NA,NA,-99.99,VWS Version 10.39,2013-02-07 04:36:00,
2013-02-06 20:41:00,51.8,46.2,30.10,NE,47,2.0,3.0,81,0.00,NA,NA,-99.99,VWS Version 10.39,2013-02-07 04:41:00,
2013-02-06 20:46:00,51.7,46.1,30.10,NE,53,1.0,3.0,81,0.00,NA,NA,-99.99,VWS Version 10.39,2013-02-07 04:46:00,
2013-02-06 20:51:00,51.4,46.1,30.10,NE,55,1.0,2.0,82,0.00,NA,NA,-99.99,VWS Version 10.39,2013-02-07 04:51:00,
2013-02-06 20:56:00,51.2,45.9,30.10,NE,55,2.0,2.0,82,0.00,NA,NA,-99.99,VWS Version 10.39,2013-02-07 04:56:00,
2013-02-06 21:01:00,51.1,46.1,30.10,NE,55,2.0,3.0,83,0.00,NA,NA,-99.99,VWS Version 10.39,2013-02-07 05:01:00,
2013-02-06 21:11:00,50.9,45.9,30.10,NE,49,2.0,2.0,83,0.00,NA,NA,-99.99,VWS Version 10.39,2013-02-07 05:11:00,
2013-02-06 21:16:00,50.8,46.5,30.10,NE,40,1.0,2.0,85,0.00,NA,NA,-99.99,VWS Version 10.39,2013-02-07 05:16:00,
2013-02-06 21:21:00,50.9,46.6,30.10,ENE,65,2.0,2.0,85,0.00,NA,NA,-99.99,VWS Version 10.39,2013-02-07 05:21:00,
2013-02-06 21:26:00,50.8,46.5,30.11,NE,55,4.0,4.0,85,0.00,NA,NA,-99.99,VWS Version 10.39,2013-02-07 05:26:00,
2013-02-06 21:31:00,50.9,46.6,30.11,NE,51,1.0,2.0,85,0.00,NA,NA,-99.99,VWS Version 10.39,2013-02-07 05:31:00,
2013-02-06 21:36:00,50.8,46.2,30.10,ENE,66,2.0,2.0,84,0.00,NA,NA,-99.99,VWS Version 10.39,2013-02-07 05:36:00,
2013-02-06 21:41:00,50.8,46.2,30.11,ENE,62,1.0,1.0,84,0.00,NA,NA,-99.99,VWS Version 10.39,2013-02-07 05:41:00,
2013-02-06 21:46:00,50.9,46.2,30.11,ENE,62,0.0,0.0,84,0.00,NA,NA,-99.99,VWS Version 10.39,2013-02-07 05:46:00,
2013-02-06 21:51:00,50.9,46.2,30.11,ENE,62,1.0,1.0,84,0.00,NA,NA,-99.99,VWS Version 10.39,2013-02-07 05:51:00,
2013-02-06 21:56:00,50.9,46.6,30.11,ENE,62,1.0,1.0,85,0.00,NA,NA,-99.99,VWS Version 10.39,2013-02-07 05:56:00,
2013-02-06 22:01:00,51.0,46.7,30.11,ENE,64,0.0,1.0,85,0.00,NA,NA,-99.99,VWS Version 10.39,2013-02-07 06:01:00,
2013-02-06 22:06:00,51.0,46.7,30.11,ENE,64,2.0,2.0,85,0.00,NA,NA,-99.99,VWS Version 10.39,2013-02-07 06:06:00,
2013-02-06 22:11:00,51.1,47.1,30.11,NE,47,1.0,2.0,86,0.00,NA,NA,-99.99,VWS Version 10.39,2013-02-07 06:11:00,
2013-02-06 22:16:00,51.1,47.1,30.11,ENE,66,1.0,3.0,86,0.00,NA,NA,-99.99,VWS Version 10.39,2013-02-07 06:16:00,
2013-02-06 22:21:00,50.9,46.9,30.11,NE,56,2.0,3.0,86,0.00,NA,NA,-99.99,VWS Version 10.39,2013-02-07 06:21:00,
2013-02-06 22:26:00,50.6,46.6,30.11,NE,49,2.0,3.0,86,0.00,NA,NA,-99.99,VWS Version 10.39,2013-02-07 06:26:00,
2013-02-06 22:31:00,50.3,46.3,30.11,NE,53,3.0,4.0,86,0.00,NA,NA,-99.99,VWS Version 10.39,2013-02-07 06:31:00,
2013-02-06 22:41:00,50.0,46.6,30.11,ENE,61,3.0,4.0,88,0.00,NA,NA,-99.99,VWS Version 10.39,2013-02-07 06:41:00,
2013-02-06 22:46:00,50.2,46.8,30.11,ENE,57,2.0,2.0,88,0.00,NA,NA,-99.99,VWS Version 10.39,2013-02-07 06:46:00,
2013-02-06 22:51:00,50.3,46.9,30.11,NE,56,2.0,3.0,88,0.00,NA,NA,-99.99,VWS Version 10.39,2013-02-07 06:51:00,
2013-02-06 22:56:00,50.3,46.9,30.11,ENE,60,3.0,3.0,88,0.00,NA,NA,-99.99,VWS Version 10.39,2013-02-07 06:56:00,
2013-02-06 23:01:00,50.1,46.7,30.11,ENE,57,3.0,3.0,88,0.00,NA,NA,-99.99,VWS Version 10.39,2013-02-07 07:01:00,
2013-02-06 23:06:00,50.0,46.6,30.11,ENE,58,2.0,3.0,88,0.00,NA,NA,-99.99,VWS Version 10.39,2013-02-07 07:06:00,
2013-02-06 23:11:00,49.9,46.5,30.11,NE,53,4.0,4.0,88,0.00,NA,NA,-99.99,VWS Version 10.39,2013-02-07 07:11:00,
2013-02-06 23:16:00,49.7,46.6,30.11,NE,54,3.0,4.0,89,0.00,NA,NA,-99.99,VWS Version 10.39,2013-02-07 07:16:00,
2013-02-06 23:21:00,49.8,46.7,30.11,ENE,58,3.0,4.0,89,0.00,NA,NA,-99.99,VWS Version 10.39,2013-02-07 07:21:00,
2013-02-06 23:26:00,49.7,46.6,30.11,ENE,58,2.0,3.0,89,0.00,NA,NA,-99.99,VWS Version 10.39,2013-02-07 07:26:00,
2013-02-06 23:31:00,49.8,46.7,30.11,ENE,67,3.0,4.0,89,0.00,NA,NA,-99.99,VWS Version 10.39,2013-02-07 07:31:00,
2013-02-06 23:36:00,49.9,46.8,30.11,ENE,61,4.0,5.0,89,0.00,NA,NA,-99.99,VWS Version 10.39,2013-02-07 07:36:00,
2013-02-06 23:41:00,50.0,46.9,30.12,NE,53,3.0,4.0,89,0.00,NA,NA,-99.99,VWS Version 10.39,2013-02-07 07:41:00,
2013-02-06 23:46:00,50.2,47.1,30.11,NE,53,3.0,4.0,89,0.00,NA,NA,-99.99,VWS Version 10.39,2013-02-07 07:46:00,
2013-02-06 23:51:00,50.2,46.8,30.12,ENE,65,4.0,4.0,88,0.00,NA,NA,-99.99,VWS Version 10.39,2013-02-07 07:51:00,
2013-02-06 23:56:00,50.2,46.8,30.12,ENE,78,4.0,4.0,88,0.00,NA,NA,-99.99,VWS Version 10.39,2013-02-07 07:56:00,